KINEIS-5B

Last updated on Mon Jun 22 2026 00:03:00 GMT+0000 (Coordinated Universal Time)

1 62085U 24219E 26172.51479208 .00000758 00000+0 11134-3 0 9995 2 62085 98.0069 336.3239 0000673 214.1662 145.9506 14.78337674 84644
UTC large
Height (km)
Speed (km/s)
/
Latitude / Longitude
Inclination (degrees)
Orbital Period (minutes)
Azimuth
Elevation
Range (km)
Doppler Factor

Next 0 passes for location: London (51.5072 / 0.1276)

No passes found over London.
KINEIS-5B